Starlink 32416

operational
NORAD ID: 61589 Int'l Des: 2024-187 Owner: SPXS Country: US Constellation: starlink
LEOCIRCULAR

Starlink 32416について

説明を読み込み中...

リアルタイム位置

3D地球を読み込み中...

次回通過

高度履歴

Altitude vs Time

uPlot chart will show altitude changes over time

軌道要素

1 61589U 24187R 25259.99352245 -.00001382 00000-0 -24580-4 0 9992
2 61589 53.1606 142.3389 0001435 64.3942 295.7211 15.39614015 52620
Epoch: Sep 16, 2025 • Age: 28 hours

現在のステータス

高度 449.9 km
速度 7.64 km/s
衛星直下点 -10.44°S, 74.16°E
打ち上げ日 Oct 18, 2024
運用期間 0.9 years
タイプ internet

技術仕様

分類 Payload
質量 730.00 kg
乾燥質量 700.00 kg
総質量 730.00 kg
長さ 0.30 m
直径 4.10 m
スパン 29.00 m
形状 Box + pan
製造者 SPXS
バスタイプ Starlink V2M
フェーズステータス In Orbit
所有者/国 SPXS/US

大規模コンステレーション

Loading constellations...